Weather History for Barcelona / Aeropuerto, Spain

Change the Weather History Date:

Saturday, May 25, 2013

  Actual Average Record
Temperature  
Mean Temperature 58 °F -  
Max Temperature 64 °F 74 °F - ()
Min Temperature 51 °F 62 °F - ()
Degree Days  
Heating Degree Days 8    
Growing Degree Days 8 (Base 50)    
Moisture  
Dew Point 46 °F    
Average Humidity 61    
Maximum Humidity 88    
Minimum Humidity 43    
Precipitation  
Precipitation 0.00 in 0.05 in - ()
Sea Level Pressure  
Sea Level Pressure 29.99 in    
Wind  
Wind Speed 8 mph ()    
Max Wind Speed 16 mph    
Max Gust Speed 31 mph    
Visibility 7.0 miles    
Events      
T = Trace of Precipitation, MM = Missing Value Source: Averaged Metar Reports

Daily Weather History Graph

Daily Weather History Graph

Search for Another Location

Airport:

Trip Planner

Search our weather history database for the weather conditions in past years. The results will help you decide how hot, cold, wet, or windy it might be!

Date:

Astronomy

May. 25, 2013 Rise Set
Actual Time 6:24 AM CEST 9:12 PM CEST
Civil Twilight 5:52 AM CEST 9:45 PM CEST
Nautical Twilight 5:11 AM CEST 10:26 PM CEST
Astronomical Twilight 4:24 AM CEST 11:13 PM CEST
Moon 9:44 PM CEST (5/25) 6:37 AM CEST (5/25)
Length of Visible Light 15h 53m
Length of Day
14h 48m
Full, 100% of the Moon is Illuminated
May 25
Full
May 31
Last Quarter
Jun 8
New
Jun 16
First Quarter
Jun 23
Full

Hourly Weather History & Observations

Time (CEST) Temp. Dew Point Humidity Pressure Visibility Wind Dir Wind Speed Gust Speed Precip Events Conditions
12:00 AM 59.0 °F 53.6 °F 82% 29.98 in 6.2 mi North 6.9 mph - N/A   Partly Cloudy
12:30 AM 59.0 °F 51.8 °F 77% 29.98 in 6.2 mi NNW 4.6 mph - N/A   Partly Cloudy
1:00 AM 55.4 °F 51.8 °F 88% 29.98 in 6.2 mi West 5.8 mph - N/A   Partly Cloudy
1:30 AM 55.4 °F 51.8 °F 88% 29.98 in 6.2 mi WNW 4.6 mph - N/A   Partly Cloudy
2:00 AM 55 °F 43 °F 54% 29.97 in 16 mi WNW 8.1 mph - -   Scattered Clouds
2:00 AM 57.2 °F 46.4 °F 67% 29.98 in 6.2 mi WNW 4.6 mph - N/A   Partly Cloudy
2:30 AM 55.4 °F 42.8 °F 63% 29.95 in 6.2 mi WNW 4.6 mph - N/A   Partly Cloudy
3:00 AM 55.4 °F 41.0 °F 58% 29.95 in 6.2 mi West 5.8 mph - N/A   Partly Cloudy
3:30 AM 53.6 °F 41.0 °F 62% 29.95 in 6.2 mi WNW 8.1 mph - N/A   Partly Cloudy
4:00 AM 53.6 °F 39.2 °F 58% 29.95 in 6.2 mi WNW 8.1 mph - N/A   Partly Cloudy
4:30 AM 53.6 °F 37.4 °F 54% 29.95 in 6.2 mi West 6.9 mph - N/A   Partly Cloudy
5:00 AM 53.6 °F 35.6 °F 51% 29.95 in 6.2 mi West 6.9 mph - N/A   Partly Cloudy
5:30 AM 53.6 °F 35.6 °F 51% 29.95 in 6.2 mi West 5.8 mph - N/A   Partly Cloudy
6:00 AM 53.6 °F 35.6 °F 51% 29.95 in 6.2 mi NNE 4.6 mph - N/A   Partly Cloudy
6:30 AM 51.8 °F 35.6 °F 54% 29.95 in 6.2 mi NW 3.5 mph - N/A   Partly Cloudy
7:00 AM 53.6 °F 37.4 °F 54% 29.95 in 6.2 mi WNW 8.1 mph - N/A   Partly Cloudy
7:30 AM 53.6 °F 37.4 °F 54% 29.95 in 6.2 mi WNW 8.1 mph - N/A   Partly Cloudy
8:00 AM 52 °F 36 °F 43% 29.99 in 19 mi North 10.4 mph - -   Scattered Clouds
8:00 AM 53.6 °F 37.4 °F 54% 29.98 in 6.2 mi WNW 8.1 mph - N/A   Scattered Clouds
8:30 AM 53.6 °F 37.4 °F 54% 29.98 in 6.2 mi NNW 15.0 mph 31.1 mph N/A   Scattered Clouds
9:00 AM 55.4 °F 39.2 °F 54% 29.98 in 6.2 mi NNW 11.5 mph 25.3 mph N/A   Scattered Clouds
9:30 AM 57.2 °F 39.2 °F 51% 29.98 in 6.2 mi NNW 13.8 mph - N/A   Scattered Clouds
10:00 AM 59.0 °F 39.2 °F 48% 30.01 in 6.2 mi NW 11.5 mph - N/A   Scattered Clouds
10:30 AM 59.0 °F 41.0 °F 51% 30.01 in 6.2 mi NNW 8.1 mph - N/A   Partly Cloudy
11:00 AM 60.8 °F 44.6 °F 55% 30.01 in 6.2 mi North 4.6 mph - N/A   Partly Cloudy
11:30 AM 62.6 °F 44.6 °F 52% 30.01 in 6.2 mi NNW 3.5 mph - N/A   Partly Cloudy
12:00 PM 62.6 °F 48.2 °F 59% 30.01 in 6.2 mi SE 9.2 mph - N/A   Partly Cloudy
12:30 PM 62.6 °F 46.4 °F 55% 30.01 in 6.2 mi ESE 10.4 mph - N/A   Partly Cloudy
1:00 PM 62.6 °F 50.0 °F 63% 30.01 in 6.2 mi SE 10.4 mph - N/A   Partly Cloudy
1:30 PM 60.8 °F 50.0 °F 68% 30.01 in 6.2 mi South 10.4 mph - N/A   Partly Cloudy
2:00 PM 63 °F 48 °F 48% 30.01 in 15 mi SSE 10.4 mph - -   Scattered Clouds
2:00 PM 62.6 °F 50.0 °F 63% 30.01 in 6.2 mi SSE 11.5 mph - N/A   Partly Cloudy
2:30 PM 62.6 °F 50.0 °F 63% 30.01 in 6.2 mi SE 10.4 mph - N/A   Partly Cloudy
3:00 PM 62.6 °F 51.8 °F 68% 30.01 in 6.2 mi SE 10.4 mph - N/A   Partly Cloudy
3:30 PM 62.6 °F 51.8 °F 68% 30.01 in 6.2 mi South 11.5 mph - N/A   Partly Cloudy
4:00 PM 62.6 °F 51.8 °F 68% 29.98 in 6.2 mi South 10.4 mph - N/A   Partly Cloudy
4:30 PM 64.4 °F 51.8 °F 64% 29.98 in 6.2 mi South 11.5 mph - N/A   Partly Cloudy
5:00 PM 64.4 °F 51.8 °F 64% 29.98 in 6.2 mi South 12.7 mph - N/A   Partly Cloudy
5:30 PM 62.6 °F 51.8 °F 68% 29.98 in 6.2 mi SSE 13.8 mph - N/A   Partly Cloudy
6:00 PM 62.6 °F 50.0 °F 63% 29.98 in 6.2 mi SSE 11.5 mph - N/A   Partly Cloudy
6:30 PM 62.6 °F 50.0 °F 63% 29.98 in 6.2 mi SSE 11.5 mph - N/A   Partly Cloudy
7:00 PM 62.6 °F 50.0 °F 63% 30.01 in 6.2 mi SE 10.4 mph - N/A   Partly Cloudy
7:30 PM 62.6 °F 50.0 °F 63% 30.01 in 6.2 mi SE 10.4 mph - N/A   Partly Cloudy
8:00 PM 62 °F 47 °F 48% 30.02 in 19 mi ESE 9.2 mph - -   Scattered Clouds
8:00 PM 62.6 °F 48.2 °F 59% 30.01 in 6.2 mi ESE 9.2 mph - N/A   Partly Cloudy
8:30 PM 60.8 °F 48.2 °F 63% 30.01 in 6.2 mi ESE 9.2 mph - N/A   Partly Cloudy
9:00 PM 60.8 °F 51.8 °F 72% 30.04 in 6.2 mi East 10.4 mph - N/A   Partly Cloudy
9:30 PM 60.8 °F 50.0 °F 68% 30.04 in 6.2 mi East 10.4 mph - N/A   Partly Cloudy
10:00 PM 60.8 °F 50.0 °F 68% 30.06 in 6.2 mi East 10.4 mph - N/A   Partly Cloudy
10:30 PM 60.8 °F 51.8 °F 72% 30.06 in 6.2 mi East 13.8 mph - N/A   Partly Cloudy
11:00 PM 60.8 °F 51.8 °F 72% 30.09 in 6.2 mi East 16.1 mph - N/A   Scattered Clouds
11:30 PM 60.8 °F 50.0 °F 68% 30.09 in 6.2 mi East 15.0 mph - N/A   Mostly Cloudy